Location: Holyhead Bay
(53.3667°N, 4.6667°W)
Time: 19:22:26
(UTC+00:00)

Cosmos 1125 Rocket - Pass Details

Date: 24 November 2020
Orbit: 757 x 780 km, 74.0° (Epoch: 16 January)

Event Time Altitude Azimuth Distance (km) Brightness Sun altitude
Rises 17:03:25 0° 334° (NNW) 3,229 6.8 -7.7°
Reaches altitude 10° 17:05:49 10° 338° (NNW) 2,299 6.0 -8.1°
Maximum altitude 17:11:00 64° 60° (ENE) 845 3.5 -8.8°
Drops below altitude 10° 17:16:09 10° 142° (SE) 2,291 5.8 -9.5°
Sets 17:18:33 0° 145° (SE) 3,215 6.6 -9.8°
